Location: Dodgeville
(42.9600°N, 90.1300°W)
Time: 12:32:09
(UTC-06:00)

Uosat F - Visible Passes

Search period start: 26 November 2014 00:00
Search period end: 06 December 2014 00:00
Orbit: 752 x 762 km, 98.7° (Epoch: 25 November)

Date Brightness Start Highest point End Pass type
(mag) Time Alt. Az. Time Alt. Az. Time Alt. Az.
26 Nov 12.9 03:51:24 10° NE 03:55:43 28° E 03:59:59 10° SSE visible
26 Nov 11.6 05:29:59 10° N 05:34:32 35° WNW 05:39:03 10° SW visible
27 Nov 14.0 03:14:17 10° ENE 03:16:07 12° E 03:17:57 10° ESE visible
27 Nov 10.9 04:50:28 10° NNE 04:55:31 81° WNW 05:00:30 10° SSW visible
27 Nov 12.8 06:32:01 10° NW 06:33:27 11° WNW 06:34:53 10° WNW visible
28 Nov 12.1 04:11:28 10° NNE 04:16:16 43° E 04:21:00 10° S visible
28 Nov 12.1 05:50:49 10° NNW 05:54:47 24° WNW 05:58:44 10° WSW visible
28 Nov 14.1 17:06:51 10° SW 17:09:41 15° W 17:12:31 10° NW visible
29 Nov 13.5 03:33:17 10° NE 03:36:47 19° E 03:40:16 10° SE visible
29 Nov 11.1 05:11:00 10° N 05:15:53 53° WNW 05:20:43 10° SW visible
30 Nov 11.3 04:31:44 10° NNE 04:36:45 68° ESE 04:41:43 10° S visible
30 Nov 12.5 06:11:55 10° NNW 06:14:58 16° WNW 06:18:01 10° W visible
01 Dec 12.8 03:53:03 10° NE 03:57:23 29° E 04:01:41 10° SSE visible
01 Dec 11.6 05:31:40 10° N 05:36:11 35° WNW 05:40:41 10° SW visible
02 Dec 14.0 03:15:50 10° ENE 03:17:48 12° E 03:19:44 10° ESE visible
02 Dec 10.9 04:52:08 10° NNE 04:57:10 79° WNW 05:02:09 10° SSW visible
02 Dec 12.8 06:33:50 10° NW 06:35:06 11° WNW 06:36:22 10° WNW visible
03 Dec 12.1 04:13:07 10° NNE 04:17:55 44° E 04:22:41 10° S visible
03 Dec 12.1 05:52:30 10° NNW 05:56:26 24° WNW 06:00:20 10° WSW visible
03 Dec 14.1 17:08:37 10° WSW 17:11:21 15° W 17:14:06 10° WNW visible
04 Dec 13.5 03:34:54 10° NE 03:38:27 19° E 03:41:59 10° SE visible
04 Dec 11.1 05:12:40 10° N 05:17:32 51° WNW 05:22:21 10° SW visible
05 Dec 11.2 04:33:23 10° NNE 04:38:24 69° ESE 04:43:22 10° S visible
05 Dec 12.5 06:13:37 10° NNW 06:16:36 16° WNW 06:19:36 10° W visible
